CAPE
0 0 0 0 0 0 0 0 0 0 0 0 0 16 16 97 42 0 0 11 0 0 0 0 0 0 0 0 0 0 0 200 473 624 645 542 500 445 252 85 42 0 0 0 0 0 0 0 0
0 0 0 0 0 0 0 0 0 0 0 0 3 0 20 69 14 0 11 41 0 0 0 0 0 0 0 0 0 0 0 75 479 585 613 587 500 424 183 62 19 0 0 0 0 0 0 0 0
0 0 0 0 0 0 0 0 0 0 0 9 6 0 18 78 0 0 148 2 0 0 0 0 0 0 0 0 0 0 0 1 232 473 490 479 524 358 119 50 4 0 0 0 0 0 0 0 0
0 0 0 0 0 0 0 0 0 0 0 58 36 10 34 58 0 2 390 29 0 0 0 0 0 0 0 0 0 0 0 0 22 179 251 390 375 193 65 21 0 0 0 0 0 0 0 0 0
0 0 0 0 0 0 0 0 0 0 0 73 6 0 95 60 0 206 312 100 0 0 0 0 0 0 0 0 0 0 0 0 0 11 100 166 167 103 29 0 0 0 0 0 8 0 0 0 22
0 0 0 0 0 0 0 0 0 0 0 0 1 1 76 84 0 59 152 70 0 0 7 0 0 0 0 0 0 0 0 0 0 0 0 19 52 20 0 0 0 0 0 2 13 7 0 5 60
0 0 0 0 0 0 0 0 0 0 0 0 0 0 76 40 0 11 68 86 63 53 48 0 0 0 0 0 0 0 0 0 0 0 0 0 0 0 0 0 0 0 0 4 13 19 29 79 110
0 0 0 0 0 0 0 0 0 0 0 0 0 0 124 49 0 0 35 31 276 340 215 117 0 0 0 0 0 0 0 0 0 0 0 0 0 0 0 0 0 0 0 6 16 54 129 184 209
0 0 0 0 0 0 0 0 0 0 0 0 0 14 157 89 0 0 3 87 337 483 406 312 121 0 0 0 0 0 0 0 0 0 0 0 0 0 0 0 0 0 0 9 38 117 214 316 412
0 0 0 0 0 0 0 0 0 0 0 0 0 9 93 35 37 1 0 1 208 497 619 502 363 134 0 0 0 0 0 0 0 0 0 0 0 0 0 0 0 0 0 14 67 180 272 500 489
0 0 0 0 0 0 0 0 0 0 0 0 0 0 26 110 60 36 0 0 26 337 716 655 463 215 1 0 0 0 0 0 0 0 0 0 0 0 0 0 0 0 14 14 67 214 375 412 457
0 0 0 0 0 0 0 0 0 0 0 0 0 0 0 5 46 65 3 0 0 75 263 835 653 332 72 5 56 35 71 21 0 0 0 0 0 0 0 0 0 0 1 6 14 37 114 220 313
0 0 0 0 0 0 0 0 0 0 0 0 0 0 0 0 0 80 92 10 25 60 95 495 611 543 378 280 292 294 210 168 150 156 71 0 9 0 0 0 0 0 0 19 12 18 45 138 98
0 0 0 0 0 0 0 0 0 0 0 0 0 0 0 0 2 31 50 44 113 63 170 279 264 373 470 697 508 529 451 478 434 365 272 174 112 60 2 0 0 0 4 41 51 24 98 207 287
0 0 0 0 0 0 0 0 0 0 0 0 0 3 1 0 0 15 3 10 80 38 24 161 72 242 576 975 1107 1110 1101 873 697 614 562 435 212 198 103 41 0 0 8 41 146 146 70 289 452
0 0 0 0 0 0 0 0 0 0 0 0 0 0 15 10 0 0 9 9 9 6 64 150 481 764 735 809 781 859 953 858 1061 1083 998 786 496 268 278 164 90 1 79 98 205 318 337 248 407
0 0 0 0 0 0 0 0 0 0 0 0 0 0 0 4 3 0 0 0 15 44 3 548 1078 1086 1179 1358 646 318 385 475 445 761 974 1156 932 563 383 477 355 218 117 369 322 377 474 485 417
0 0 0 0 0 0 0 0 0 0 0 0 0 0 0 0 0 1 0 0 15 96 23 62 698 1395 1658 1125 749 765 1037 856 819 1008 1205 1327 1365 1163 740 643 813 747 538 379 473 532 397 307 359
0 0 0 0 0 0 0 0 0 0 0 0 0 0 0 0 0 0 0 0 0 74 53 0 73 339 323 481 549 748 463 402 531 689 840 1187 1513 1567 1388 1316 1062 1058 1056 873 577 640 527 483 422
0 0 0 0 0 0 0 0 0 0 0 0 0 0 0 0 0 0 0 0 1 61 74 4 1 54 89 35 0 0 7 67 71 113 852 1045 1405 1631 1624 1404 1330 1458 1120 1011 954 781 689 539 459
0 0 0 0 0 0 0 0 0 0 0 0 0 0 0 0 0 0 0 0 0 76 86 12 29 12 13 14 32 38 335 388 690 816 875 1258 1477 1616 1693 1478 1295 1359 1403 1199 1046 940 759 567 465
0 0 0 0 0 0 0 0 0 0 0 0 0 0 0 0 0 0 0 0 109 146 155 40 38 39 0 2 0 0 4 0 63 575 1271 1574 1612 1566 1514 1616 1520 1384 1506 1276 1241 1021 728 560 692
0 0 0 0 0 0 0 0 0 0 0 0 0 0 0 0 0 0 0 0 13 94 23 7 0 1 0 0 0 0 62 103 262 828 1499 1514 1573 1623 1667 1587 1479 1454 1489 1276 1280 1008 754 592 594
0 10 3 1 0 0 0 0 0 0 0 0 0 0 0 0 0 0 0 0 1 164 14 0 1 0 0 0 0 0 0 10 526 1356 1687 1608 1584 1668 1732 1590 1462 1361 1672 1208 1359 1067 919 930 723
0 0 0 0 0 0 0 19 0 0 0 0 0 0 0 0 0 0 0 0 0 36 0 0 0 0 0 0 0 0 0 9 577 1423 1870 1795 1706 1599 1619 1375 1205 1499 1406 1301 1244 1104 841 667 634
0 34 2 2 0 0 0 0 0 0 0 0 0 0 0 0 0 0 0 0 0 0 0 0 0 0 0 0 0 28 169 430 587 1753 1784 1759 1640 1486 1291 1162 1226 1412 1389 1173 929 791 775 690 633
0 0 40 18 0 0 0 0 0 1 4 12 0 0 0 0 2 0 0 0 0 0 0 0 0 0 0 0 34 389 455 513 746 1797 1890 1727 1524 1310 1241 1264 1347 1483 1230 968 788 585 433 415 362
12 3 9 2 0 0 0 0 0 40 2 0 0 0 0 0 8 94 17 34 56 129 134 137 15 0 0 67 465 589 747 1187 2184 2084 1954 1703 1477 1374 1374 1417 1438 1286 903 707 466 187 406 437 329
12 0 0 0 2 0 0 0 109 0 0 0 0 0 0 0 29 10 100 446 501 430 208 365 111 2 85 338 739 1382 1701 1892 2541 2168 2170 1826 1684 1578 1515 1500 996 705 437 395 195 245 309 252 229
0 0 0 0 0 0 0 0 0 0 0 0 0 0 0 0 1 257 763 963 646 378 364 304 132 65 638 1608 1829 1786 2001 2427 2146 1783 1578 1723 1799 1544 1246 895 563 109 191 268 137 82 158 27 9
CIN
-0 -0 -0 -0 -0 -0 -0 -0 -0 -0 -0 -0 -2 -59 -81 -88 -85 -0 -0 -290 -0 -0 -0 -0 -0 -0 -0 -0 -0 -0 -0 -368 -297 -262 -246 -254 -248 -241 -257 -312 -362 -0 -0 -0 -0 -0 -0 -0 -0
-0 -0 -0 -0 -0 -0 -0 -0 -0 -0 -0 -0 -56 -0 -55 -102 -131 -0 -219 -350 -0 -0 -0 -0 -0 -0 -0 -0 -0 -0 -0 -438 -331 -294 -272 -268 -269 -258 -304 -364 -427 -0 -0 -0 -0 -0 -0 -0 -0
-0 -0 -0 -0 -0 -0 -0 -0 -0 -0 -0 -21 -42 -0 -23 -62 -0 -0 -255 -26 -0 -0 -0 -0 -0 -0 -0 -0 -0 -0 -0 -19 -420 -337 -311 -302 -276 -288 -341 -406 -219 -0 -0 -0 -0 -0 -0 -0 -0
-0 -0 -0 -0 -0 -0 -0 -0 -0 -0 -0 -26 -44 -59 -68 -80 -0 -92 -270 -471 -0 -0 -0 -0 -0 -0 -0 -0 -0 -0 -0 -0 -191 -441 -374 -320 -312 -338 -388 -471 -0 -0 -0 -0 -0 -0 -0 -0 -0
-0 -0 -0 -0 -0 -0 -0 -0 -0 -0 -0 -23 -28 -0 -30 -72 -0 -219 -261 -373 -0 -0 -0 -0 -0 -0 -0 -0 -0 -0 -0 -0 -0 -242 -418 -391 -376 -386 -447 -0 -0 -0 -0 -38 -471 -0 -0 -0 -442
-0 -0 -0 -0 -0 -0 -0 -0 -0 -0 -0 -0 -14 -4 -19 -86 -0 -211 -245 -340 -0 -0 -640 -0 -0 -0 -0 -0 -0 -0 -0 -0 -0 -0 -0 -280 -453 -287 -0 -0 -0 -0 -0 -155 -448 -444 -0 -220 -393
-0 -0 -0 -0 -0 -0 -0 -0 -0 -0 -0 -0 -0 -0 -37 -100 -0 -216 -239 -286 -366 -471 -633 -1 -0 -0 -0 -0 -0 -0 -0 -0 -0 -0 -0 -0 -0 -0 -0 -0 -0 -0 -0 -507 -470 -439 -423 -389 -372
-0 -0 -0 -0 -0 -0 -0 -0 -0 -0 -0 -0 -0 -0 -22 -82 -0 -0 -214 -252 -295 -383 -490 -623 -0 -0 -0 -0 -0 -0 -0 -0 -0 -0 -0 -0 -0 -0 -0 -0 -0 -0 -0 -546 -487 -417 -373 -338 -312
-0 -0 -0 -0 -0 -0 -0 -0 -0 -0 -0 -0 -0 -29 -43 -49 -0 -0 -273 -234 -229 -280 -368 -539 -646 -0 -0 -0 -0 -0 -0 -0 -0 -0 -0 -0 -0 -0 -0 -0 -0 -0 -0 -556 -470 -408 -360 -299 -255
-0 -0 -0 -0 -0 -0 -0 -0 -0 -0 -0 -0 -0 -21 -17 -53 -81 -23 -0 -193 -190 -206 -272 -396 -515 -642 -0 -0 -0 -0 -0 -0 -0 -0 -0 -0 -0 -0 -0 -0 -0 -0 -0 -542 -459 -386 -352 -260 -242
-0 -0 -0 -0 -0 -0 -0 -0 -0 -0 -0 -0 -0 -0 -23 -31 -86 -94 -0 -0 -215 -148 -210 -275 -362 -483 -115 -0 -0 -0 -0 -0 -0 -0 -0 -0 -0 -0 -0 -0 -0 -0 -526 -575 -486 -381 -334 -323 -274
-0 -0 -0 -0 -0 -0 -0 -0 -0 -0 -0 -0 -0 -0 -0 -21 -13 -29 -18 -0 -2 -96 -135 -254 -364 -393 -452 -579 -587 -563 -598 -622 -0 -0 -0 -0 -0 -0 -0 -0 -0 -0 -37 -620 -607 -549 -484 -419 -333
-0 -0 -0 -0 -0 -0 -0 -0 -0 -0 -0 -0 -0 -0 -0 -0 -5 -29 -51 -80 -78 -72 -169 -193 -260 -309 -384 -401 -458 -483 -487 -560 -562 -626 -717 -0 -307 -0 -0 -0 -0 -0 -39 -596 -592 -574 -521 -454 -408
-0 -0 -0 -0 -0 -0 -0 -0 -0 -0 -0 -0 -0 -0 -0 -0 -13 -64 -51 -51 -67 -65 -120 -137 -165 -201 -241 -276 -323 -343 -412 -399 -448 -508 -610 -688 -699 -727 -472 -0 -0 -0 -599 -569 -514 -496 -466 -418 -325
-0 -0 -0 -0 -0 -0 -0 -0 -0 -0 -0 -0 -0 -133 -54 -0 -0 -66 -62 -49 -81 -84 -103 -108 -146 -150 -230 -207 -194 -244 -297 -325 -347 -357 -446 -533 -622 -623 -590 -574 -0 -0 -542 -497 -450 -403 -415 -359 -275
-0 -0 -0 -0 -0 -0 -0 -0 -0 -0 -0 -0 -0 -0 -104 -117 -0 -0 -91 -91 -96 -73 -99 -103 -96 -131 -187 -163 -177 -220 -238 -250 -234 -246 -277 -382 -484 -549 -471 -462 -486 -19 -431 -398 -347 -324 -305 -288 -212
-0 -0 -0 -0 -0 -0 -0 -0 -0 -0 -0 -0 -0 -0 -0 -114 -100 -37 -0 -0 -64 -49 -39 -120 -110 -113 -145 -177 -241 -270 -268 -275 -274 -266 -255 -230 -326 -403 -392 -374 -383 -397 -406 -290 -247 -213 -196 -164 -132
-0 -0 -0 -0 -0 -0 -0 -0 -0 -0 -0 -0 -0 -0 -0 -0 -46 -75 -0 -0 -49 -62 -118 -116 -170 -148 -165 -195 -231 -272 -271 -299 -298 -273 -264 -246 -257 -305 -336 -332 -272 -263 -306 -293 -226 -187 -185 -157 -89
-0 -0 -0 -0 -0 -0 -0 -0 -0 -0 -0 -0 -0 -0 -0 -0 -0 -0 -0 -0 -0 -68 -104 -1 -152 -192 -190 -206 -214 -266 -275 -301 -298 -301 -269 -248 -240 -236 -242 -246 -231 -196 -186 -182 -193 -158 -173 -144 -113
-0 -0 -0 -0 -0 -0 -0 -0 -0 -0 -0 -0 -0 -0 -0 -0 -0 -0 -0 -0 -148 -99 -89 -115 -24 -185 -208 -229 -0 -0 -408 -357 -315 -329 -280 -262 -240 -225 -226 -216 -198 -166 -166 -139 -118 -130 -131 -123 -108
-0 -0 -0 -0 -0 -0 -0 -0 -0 -0 -0 -0 -0 -0 -0 -0 -0 -0 -0 -0 -0 -106 -105 -106 -110 -100 -251 -254 -270 -309 -315 -316 -277 -293 -286 -262 -243 -215 -211 -220 -199 -186 -121 -111 -109 -102 -106 -107 -88
-0 -0 -0 -0 -0 -0 -0 -0 -0 -0 -0 -0 -0 -0 -0 -0 -0 -0 -0 -0 -100 -97 -129 -129 -139 -149 -0 -350 -0 -0 -317 -0 -348 -243 -220 -228 -226 -206 -203 -184 -167 -175 -94 -96 -69 -79 -102 -93 -28
-0 -0 -0 -0 -0 -0 -0 -0 -0 -0 -0 -0 -0 -0 -0 -0 -0 -0 -0 -0 -105 -78 -125 -123 -0 -77 -0 -24 -25 -0 -349 -372 -320 -205 -178 -214 -207 -197 -178 -174 -166 -132 -73 -81 -50 -72 -84 -76 -33
-0 -37 -19 -11 -0 -0 -0 -0 -0 -0 -0 -0 -0 -0 -0 -0 -0 -0 -0 -0 -19 -99 -101 -0 -115 -0 -0 -0 -0 -0 -0 -282 -276 -156 -158 -202 -200 -189 -165 -153 -157 -107 -38 -57 -34 -48 -38 -23 -30
-0 -0 -0 -0 -0 -0 -0 -21 -0 -0 -0 -0 -0 -0 -0 -0 -0 -0 -0 -0 -0 -94 -0 -0 -0 -0 -0 -0 -0 -150 -0 -231 -250 -116 -116 -164 -175 -196 -168 -170 -147 -58 -34 -29 -30 -19 -24 -34 -32
-0 -8 -24 -7 -0 -0 -0 -0 -0 -0 -0 -0 -0 -0 -0 -0 -0 -0 -0 -0 -0 -0 -0 -0 -0 -0 -0 -0 -0 -371 -327 -260 -207 -84 -103 -138 -169 -187 -177 -178 -103 -39 -21 -37 -33 -22 -23 -28 -26
-0 -4 -20 -21 -0 -0 -0 -0 -0 -10 -7 -91 -0 -0 -0 -0 -8 -0 -0 -0 -0 -0 -0 -0 -0 -0 -0 -3 -339 -193 -234 -206 -183 -73 -98 -113 -149 -158 -177 -116 -55 -20 -23 -33 -27 -29 -40 -36 -48
-7 -26 -39 -30 -0 -1 -0 -0 -0 -90 -109 -0 -0 -0 -0 -0 -9 -82 -39 -35 -33 -145 -100 -124 -110 -0 -0 -283 -140 -141 -133 -83 -35 -42 -84 -94 -129 -152 -124 -60 -27 -20 -33 -33 -31 -60 -26 -26 -36
-96 -3 -6 -11 -10 -0 -0 -0 -40 -38 -0 -0 -0 -0 -0 -0 -35 -73 -78 -65 -61 -69 -81 -131 -204 -237 -256 -162 -106 -66 -36 -23 -18 -28 -39 -59 -101 -105 -62 -31 -44 -49 -74 -45 -40 -29 -14 -38 -44
-2 -0 -0 -0 -0 -1 -0 -0 -6 -0 -0 -0 -0 -0 -0 -0 -21 -10 -43 -45 -35 -64 -101 -90 -187 -235 -117 -58 -37 -19 -13 -12 -20 -46 -56 -81 -88 -72 -53 -67 -68 -125 -85 -37 -45 -46 -21 -56 -79
Wind_Speed
22 22 22 19 20 22 28 26 32 31 30 20 11 13 10 10 8 18 4 18 21 24 23 23 23 24 24 23 22 20 20 22 22 22 21 21 21 21 21 21 20 20 19 19 19 19 20 20 21
20 19 19 20 24 28 29 36 33 29 28 18 15 15 15 13 10 7 11 13 24 22 21 22 22 23 23 22 21 20 20 21 20 20 20 19 19 18 18 18 18 18 18 18 17 18 17 18 19
19 17 20 21 25 30 27 29 28 32 42 19 13 16 18 10 3 6 7 17 19 18 19 21 22 22 21 20 20 20 19 19 19 19 18 17 17 16 16 15 15 15 15 15 16 15 15 16 17
17 18 23 28 35 34 41 35 35 35 28 11 14 20 17 2 6 3 14 16 18 15 16 19 20 20 20 20 19 19 18 18 17 17 16 15 14 14 13 13 12 12 13 13 13 13 13 14 15
19 22 28 31 37 37 37 35 33 33 31 16 16 23 10 3 5 12 13 14 15 15 16 18 18 18 19 19 18 17 16 16 15 15 13 13 12 11 11 10 10 10 10 10 11 11 12 13 13
23 22 29 34 38 38 37 34 28 27 27 23 18 18 15 3 9 11 10 11 13 13 14 15 15 16 17 18 17 16 15 14 13 13 12 11 10 9 8 8 7 7 8 8 8 9 10 11 11
26 29 32 36 39 40 37 29 30 30 29 23 24 20 13 3 7 9 9 8 11 10 11 12 12 12 14 15 15 13 11 11 11 11 10 9 7 6 6 5 5 6 5 5 5 6 7 8 9
29 31 38 38 39 42 37 34 31 31 33 29 24 24 14 5 8 7 8 6 6 6 7 8 10 9 10 12 13 12 11 10 10 8 7 6 5 4 4 3 3 4 4 3 3 4 5 6 7
27 34 42 41 40 39 37 35 31 31 32 28 24 21 14 3 5 5 7 5 7 6 6 6 7 7 9 9 9 9 9 8 7 6 5 4 3 3 3 2 3 3 3 2 1 1 2 4 5
29 43 42 35 39 42 39 39 36 33 32 31 28 17 10 1 6 7 10 11 10 8 8 7 5 5 6 5 6 7 6 6 5 3 3 3 1 2 2 2 5 4 4 3 2 1 1 3 5
30 51 39 41 41 43 43 42 38 35 36 32 32 24 21 11 10 11 13 14 14 12 9 8 6 6 5 3 4 3 5 3 2 3 2 3 2 3 3 3 4 4 5 3 3 2 2 4 4
38 40 37 45 45 46 48 45 45 41 40 37 36 34 27 27 21 16 16 14 12 14 13 10 7 6 5 3 5 4 4 3 1 2 3 3 1 3 5 4 4 3 3 4 4 4 4 4 4
39 43 44 45 47 47 48 52 47 47 42 41 43 40 36 31 27 25 20 17 16 13 12 12 9 8 6 5 3 3 4 2 1 0 2 2 1 3 4 4 4 3 3 3 3 3 4 5 4
35 41 42 42 44 48 48 52 48 50 42 45 42 42 41 35 30 25 31 24 15 10 8 11 12 10 10 8 6 4 4 3 3 3 2 3 2 4 5 4 4 3 4 3 3 3 3 3 3
38 43 45 44 42 45 40 52 54 51 45 45 48 48 42 35 34 28 33 30 22 13 14 12 13 12 10 10 7 5 6 5 6 6 5 4 5 5 6 5 4 4 4 4 3 3 4 5 4
38 40 44 35 37 43 38 57 54 44 45 50 48 48 46 40 35 35 26 36 29 25 13 12 12 12 11 11 10 10 8 8 7 8 8 7 7 8 8 7 5 4 4 4 4 4 4 5 5
29 42 44 48 37 39 38 53 56 50 48 48 51 51 48 48 41 35 32 34 30 26 19 16 14 13 13 12 10 10 11 10 8 9 11 10 9 9 9 7 6 5 5 4 5 7 5 5 5
34 40 42 50 33 33 37 50 50 45 47 50 50 51 52 53 50 41 35 33 27 27 22 19 16 16 14 15 17 18 16 14 14 13 12 12 10 9 8 7 7 5 4 6 5 6 5 8 6
41 45 47 50 41 42 43 48 55 46 46 46 49 46 47 50 58 55 48 42 37 28 26 24 23 20 19 21 23 22 20 20 19 16 14 12 11 9 7 6 6 5 5 4 4 5 5 6 8
42 45 50 50 44 44 48 54 57 50 49 49 48 50 46 44 46 53 55 51 43 34 30 28 26 24 24 23 24 25 25 24 21 16 13 12 11 8 7 6 6 7 4 5 5 5 7 7 8
43 44 48 52 46 42 47 54 58 60 52 52 53 50 47 42 39 41 48 48 47 36 31 29 27 26 24 24 24 25 26 23 22 19 14 13 9 7 6 5 5 5 3 3 4 5 4 6 9
48 41 46 45 44 51 38 64 54 57 59 54 52 52 52 45 43 40 43 45 37 31 30 28 26 25 24 23 25 26 25 22 21 19 13 10 7 6 4 5 5 4 3 3 4 3 4 8 10
47 40 44 48 46 49 46 53 58 45 54 58 54 54 51 50 43 43 39 41 36 27 24 25 24 24 23 25 25 25 24 22 21 19 11 9 7 4 4 5 3 3 2 3 1 2 6 7 8
39 37 41 42 40 54 51 52 64 58 60 61 56 56 54 48 46 40 40 36 34 26 25 25 23 25 24 26 26 25 23 22 21 18 12 8 7 4 5 3 3 2 1 2 1 3 4 7 7
33 31 37 39 43 53 45 42 49 54 54 57 59 56 54 55 52 40 39 37 36 29 25 25 26 25 22 26 27 25 23 21 20 17 12 9 6 6 4 4 3 2 1 4 4 4 6 6 7
34 31 32 40 48 52 43 49 54 48 49 53 54 55 54 53 55 39 36 36 34 37 34 30 29 27 22 22 27 28 24 21 20 16 12 9 6 5 3 3 0 2 3 5 5 7 7 7 7
38 32 31 36 39 42 39 44 43 41 40 39 42 47 46 46 48 34 32 32 33 31 34 30 25 24 22 20 21 25 23 20 20 15 12 8 5 3 1 2 3 3 3 4 6 7 7 6 7
30 32 35 27 36 38 30 34 36 31 34 37 37 38 35 38 32 17 18 21 21 23 22 25 25 22 21 15 13 17 19 18 13 12 10 7 4 1 3 4 4 4 4 5 7 7 6 5 6
30 28 26 26 28 30 33 29 26 32 35 38 40 38 33 39 26 21 16 15 17 22 25 26 25 20 15 10 11 12 11 10 10 10 7 6 4 4 5 5 4 4 6 6 6 8 6 6 7
23 29 26 30 30 25 35 39 29 29 34 42 40 35 31 30 24 24 19 25 26 31 31 32 23 17 13 10 8 8 8 9 9 6 5 5 6 6 5 4 4 5 5 5 5 7 6 6 7
Wind_Direction
281 276 275 286 271 268 259 257 238 243 258 276 315 295 332 331 326 297 54 125 130 128 121 117 112 110 112 108 99 93 90 92 95 92 89 89 88 87 88 86 84 82 78 73 68 65 58 53 47
285 278 277 274 264 258 258 223 225 221 235 301 302 290 303 310 332 61 93 121 135 128 121 117 113 113 113 112 105 101 100 98 96 95 92 91 91 93 89 86 86 84 82 77 73 68 64 58 52
287 276 271 268 262 254 255 245 259 261 281 277 302 296 287 306 349 116 106 122 134 127 121 119 118 118 114 112 109 109 107 102 101 101 100 95 97 95 89 86 87 87 85 82 76 71 67 59 51
281 275 271 262 255 255 230 250 266 274 280 309 290 286 294 18 133 145 127 125 133 131 124 123 121 117 117 115 117 116 113 111 108 106 108 101 101 99 92 90 91 93 89 83 78 74 69 55 49
284 268 262 260 256 254 247 258 267 275 290 292 285 268 285 158 113 133 134 132 137 133 128 126 124 120 119 119 121 118 120 115 112 115 112 111 109 104 97 95 92 97 93 87 82 73 65 52 47
270 271 264 259 256 252 250 252 287 290 295 274 289 268 280 196 141 148 150 153 150 144 134 130 127 123 122 124 127 123 123 123 118 122 122 120 114 110 105 99 98 109 99 93 85 70 56 51 46
271 264 264 262 259 257 252 273 280 284 288 285 269 283 291 176 155 153 152 153 156 152 143 136 132 129 126 127 127 123 119 121 124 127 126 126 118 115 115 111 113 120 117 96 90 67 55 47 42
269 268 261 262 260 257 261 275 277 279 276 281 278 277 293 245 157 158 158 188 167 181 162 151 141 137 131 129 130 130 130 129 133 129 128 134 130 127 134 131 145 145 142 113 95 67 50 37 35
270 265 257 260 261 261 265 271 276 278 274 282 275 294 314 219 156 157 152 202 209 202 191 167 155 157 143 136 128 129 133 134 135 135 140 148 132 151 158 171 189 184 185 165 129 83 41 24 20
263 259 260 267 264 264 268 268 269 279 276 269 268 292 310 339 204 213 244 175 193 201 203 183 176 174 159 149 136 136 135 139 142 138 139 160 180 206 227 240 221 219 221 224 218 229 344 355 357
269 256 267 266 267 269 268 266 269 275 267 263 265 287 295 278 255 254 245 214 213 204 205 183 181 180 181 179 152 143 158 145 143 185 182 177 223 249 277 281 243 239 235 257 230 261 308 331 332
270 270 272 265 267 268 268 270 268 268 267 268 272 276 291 273 270 266 244 238 217 209 221 223 227 205 201 191 160 144 148 144 92 179 179 167 228 279 277 281 240 251 264 245 237 256 285 305 307
269 269 271 270 266 268 268 264 269 268 269 270 270 272 278 291 267 267 271 258 254 228 227 221 217 217 230 220 225 194 191 188 351 248 194 180 293 303 314 281 238 252 239 234 232 253 290 299 286
282 277 275 274 272 267 267 266 268 265 270 266 269 269 271 282 279 265 261 262 258 247 228 223 228 241 233 217 237 236 233 267 299 284 246 221 280 312 319 299 242 253 225 229 225 256 301 307 298
283 277 276 272 274 271 277 268 265 266 268 269 261 264 267 275 274 269 261 258 266 261 254 238 248 259 236 225 241 237 291 288 302 283 277 274 269 305 308 300 247 271 248 237 238 272 305 320 299
282 279 274 280 279 275 276 267 264 271 269 266 268 263 264 265 270 276 259 261 255 261 256 250 258 252 237 236 236 262 279 290 292 290 290 288 281 293 301 292 272 267 272 253 263 296 297 296 290
288 277 277 274 282 281 277 269 264 269 269 268 264 263 264 264 266 270 269 260 253 257 253 243 238 239 236 241 254 269 282 288 288 288 304 294 293 289 284 283 281 276 247 250 282 304 306 299 282
288 283 281 275 288 284 279 271 272 274 270 267 266 264 261 259 261 266 269 269 261 257 253 246 241 239 241 260 280 288 291 290 303 302 303 308 298 291 280 274 288 287 266 240 279 305 304 321 323
288 284 283 278 288 288 282 278 271 277 276 275 265 266 263 261 257 258 263 267 268 256 250 247 250 254 260 271 277 283 285 296 301 300 300 303 301 292 282 288 280 281 295 280 279 313 311 320 338
291 287 281 283 288 287 282 276 273 276 276 274 275 269 265 263 262 260 258 262 266 261 248 244 247 253 260 266 273 282 290 296 297 298 295 303 308 303 286 266 290 306 279 295 310 319 338 341 349
291 290 286 284 290 289 283 278 274 270 275 274 270 271 273 261 260 264 257 261 264 256 249 245 246 250 257 264 273 279 288 293 300 302 294 306 309 309 297 281 284 300 274 288 320 328 337 335 341
291 294 291 292 290 282 288 276 275 274 272 272 271 270 269 273 259 261 261 257 265 255 245 242 246 250 256 264 271 276 280 279 290 297 294 305 310 305 298 295 303 318 268 304 326 341 343 345 341
294 298 291 292 287 288 284 280 277 280 273 270 271 269 270 269 271 256 260 256 262 247 236 239 243 250 256 265 269 274 275 278 288 294 287 298 308 293 298 301 305 301 307 324 333 359 352 349 343
307 299 295 291 289 280 283 282 276 276 274 273 272 269 267 271 272 259 252 256 252 250 240 241 244 255 257 264 269 271 270 275 283 289 278 279 291 293 308 301 319 267 303 333 11 2 7 358 353
316 312 299 288 287 283 290 288 282 282 280 272 268 268 265 265 274 261 250 256 249 244 245 246 251 254 253 261 264 265 265 268 273 276 276 273 270 295 291 312 318 331 24 23 33 20 5 3 355
309 307 295 292 291 291 296 285 286 287 283 276 273 268 264 269 275 255 247 252 255 251 254 257 259 260 258 260 262 260 258 264 270 269 263 260 254 286 297 325 81 110 61 26 19 6 5 5 6
297 296 303 301 302 299 299 291 295 293 292 291 285 268 265 269 279 251 244 250 256 252 250 254 258 262 264 261 263 258 251 257 267 252 249 231 258 278 329 121 128 103 59 31 8 1 6 24 22
296 292 295 309 303 301 306 299 299 308 307 301 289 280 278 264 276 261 234 242 248 250 256 264 269 264 266 257 255 251 254 260 246 227 217 221 237 253 117 118 108 87 61 14 2 8 19 38 45
290 293 308 315 308 308 303 300 314 308 307 297 288 279 271 273 264 264 251 250 257 259 262 265 268 264 255 249 256 251 246 221 195 193 205 202 178 132 119 111 94 65 14 6 13 10 33 51 50
299 287 303 297 259 252 266 260 304 300 304 300 282 260 262 264 255 263 258 249 261 261 264 261 261 249 244 245 241 235 198 180 180 199 187 160 144 128 113 91 75 25 26 39 39 23 56 48 40